| time (UTC) | temp F | wind direction | speed MPH | gust MPH | rain 1hr in | rain 24hr in | rain mn in | humidity % | barometer mb |
| 20260903164203 | 89 | 39 | 4.0 | 9.0 | 0.00 | 0.00 | 0.00 | 70 | 1017.6 |
| 20260903163659 | 89 | 38 | 4.0 | 10.0 | 0.00 | 0.00 | 0.00 | 69 | 1017.8 |
| 20260903163201 | 89 | 35 | 5.0 | 10.0 | 0.00 | 0.00 | 0.00 | 69 | 1017.6 |
| 20260903162201 | 88 | 64 | 5.0 | 10.0 | 0.00 | 0.00 | 0.00 | 69 | 1017.6 |
| 20260903161658 | 89 | 77 | 5.0 | 9.0 | 0.00 | 0.00 | 0.00 | 72 | 1017.7 |
| 20260903161201 | 88 | 67 | 4.0 | 9.0 | 0.00 | 0.00 | 0.00 | 70 | 1017.8 |
| 20260903160659 | 88 | 70 | 3.0 | 8.0 | 0.00 | 0.00 | 0.00 | 72 | 1017.9 |
| 20260903160158 | 87 | 71 | 3.0 | 7.0 | 0.00 | 0.00 | 0.00 | 75 | 1017.8 |
| 20260903155657 | 86 | 71 | 3.0 | 7.0 | 0.00 | 0.00 | 0.00 | 76 | 1017.9 |
| 20260903155157 | 87 | 73 | 4.0 | 9.0 | 0.00 | 0.00 | 0.00 | 76 | 1018.1 |
| 20260903153657 | 86 | 57 | 3.0 | 7.0 | 0.00 | 0.00 | 0.00 | 78 | 1018.0 |
| 20260903153158 | 86 | 55 | 3.0 | 7.0 | 0.00 | 0.00 | 0.00 | 77 | 1018.1 |
| 20260903152658 | 87 | 52 | 3.0 | 10.0 | 0.00 | 0.00 | 0.00 | 76 | 1018.2 |
| 20260903152156 | 87 | 74 | 4.0 | 10.0 | 0.00 | 0.00 | 0.00 | 77 | 1018.3 |
| 20260903151656 | 86 | 54 | 2.0 | 9.0 | 0.00 | 0.00 | 0.00 | 77 | 1018.2 |
| 20260903150656 | 85 | 1 | 4.0 | 8.0 | 0.00 | 0.00 | 0.00 | 81 | 1018.2 |
| 20260903150156 | 85 | 96 | 4.0 | 9.0 | 0.00 | 0.00 | 0.00 | 80 | 1018.3 |
| 20260903145155 | 85 | 72 | 2.0 | 7.0 | 0.00 | 0.00 | 0.00 | 84 | 1018.1 |
| 20260903144654 | 83 | 73 | 2.0 | 7.0 | 0.00 | 0.00 | 0.00 | 86 | 1018.0 |
| 20260903144155 | 83 | 54 | 3.0 | 7.0 | 0.00 | 0.00 | 0.00 | 87 | 1018.0 |
| 20260903143154 | 82 | 27 | 3.0 | 7.0 | 0.00 | 0.00 | 0.00 | 90 | 1018.1 |
| 20260903142653 | 81 | 32 | 3.0 | 7.0 | 0.00 | 0.00 | 0.00 | 93 | 1017.9 |
| 20260903142153 | 80 | 342 | 4.0 | 8.0 | 0.00 | 0.00 | 0.00 | 94 | 1018.0 |
| 20260903141652 | 80 | 35 | 4.0 | 8.0 | 0.00 | 0.00 | 0.00 | 94 | 1017.9 |
| 20260903141150 | 80 | 65 | 4.0 | 8.0 | 0.00 | 0.00 | 0.00 | 95 | 1018.1 |
| 20260903140651 | 79 | 67 | 4.0 | 8.0 | 0.00 | 0.00 | 0.00 | 96 | 1018.0 |
| 20260903135651 | 79 | 31 | 4.0 | 8.0 | 0.00 | 0.00 | 0.00 | 96 | 1017.9 |
| 20260903135150 | 78 | 49 | 4.0 | 8.0 | 0.00 | 0.00 | 0.00 | 96 | 1017.9 |
| 20260903134652 | 79 | 54 | 3.0 | 8.0 | 0.00 | 0.00 | 0.00 | 96 | 1018.1 |
| 20260903134151 | 79 | 71 | 3.0 | 8.0 | 0.00 | 0.00 | 0.00 | 96 | 1018.0 |
| 20260903133652 | 79 | 71 | 3.0 | 8.0 | 0.00 | 0.00 | 0.00 | 96 | 1018.0 |
| 20260903133150 | 79 | 63 | 3.0 | 5.0 | 0.00 | 0.00 | 0.00 | 96 | 1018.1 |
| 20260903132645 | 78 | 63 | 3.0 | 6.0 | 0.00 | 0.00 | 0.00 | 96 | 1018.1 |
| 20260903132145 | 78 | 55 | 3.0 | 6.0 | 0.00 | 0.00 | 0.00 | 96 | 1018.2 |
| 20260903131644 | 78 | 62 | 3.0 | 6.0 | 0.00 | 0.00 | 0.00 | 96 | 1018.1 |
| 20260903131143 | 78 | 47 | 3.0 | 6.0 | 0.00 | 0.00 | 0.00 | 96 | 1018.0 |
| 20260903130640 | 78 | 41 | 3.0 | 7.0 | 0.00 | 0.00 | 0.00 | 96 | 1018.0 |
| 20260903130141 | 78 | 40 | 3.0 | 7.0 | 0.00 | 0.00 | 0.00 | 96 | 1018.2 |
| 20260903125641 | 77 | 35 | 4.0 | 9.0 | 0.00 | 0.00 | 0.00 | 96 | 1018.2 |
| 20260903124140 | 77 | 56 | 3.0 | 5.0 | 0.00 | 0.00 | 0.00 | 96 | 1018.0 |
| 20260903123640 | 77 | 53 | 3.0 | 5.0 | 0.00 | 0.00 | 0.00 | 96 | 1018.1 |
| 20260903123141 | 77 | 58 | 2.0 | 5.0 | 0.00 | 0.00 | 0.00 | 96 | 1018.1 |
| 20260903122635 | 77 | 59 | 2.0 | 5.0 | 0.00 | 0.00 | 0.00 | 96 | 1018.0 |
| 20260903122126 | 77 | 60 | 2.0 | 5.0 | 0.00 | 0.00 | 0.00 | 96 | 1018.0 |
| 20260903121625 | 76 | 29 | 2.0 | 5.0 | 0.00 | 0.00 | 0.00 | 96 | 1018.0 |
| 20260903121119 | 76 | 29 | 2.0 | 5.0 | 0.00 | 0.00 | 0.00 | 96 | 1017.9 |
| 20260903115614 | 76 | 15 | 2.0 | 5.0 | 0.00 | 0.00 | 0.00 | 96 | 1017.9 |
| 20260903115115 | 76 | 47 | 2.0 | 4.0 | 0.00 | 0.00 | 0.00 | 96 | 1017.8 |
| 20260903114615 | 76 | 47 | 2.0 | 4.0 | 0.00 | 0.00 | 0.00 | 96 | 1017.7 |
| 20260903114114 | 76 | 47 | 2.0 | 3.0 | 0.00 | 0.00 | 0.00 | 96 | 1017.6 |
| 20260903113613 | 75 | 47 | 2.0 | 3.0 | 0.00 | 0.00 | 0.00 | 96 | 1017.6 |
| 20260903113112 | 75 | 47 | 2.0 | 3.0 | 0.00 | 0.00 | 0.00 | 96 | 1017.4 |
| 20260903112608 | 75 | 47 | 1.0 | 3.0 | 0.00 | 0.00 | 0.00 | 96 | 1017.4 |
| 20260903112108 | 75 | 47 | 1.0 | 3.0 | 0.00 | 0.00 | 0.00 | 96 | 1017.3 |
| 20260903111607 | 75 | 47 | 2.0 | 4.0 | 0.00 | 0.00 | 0.00 | 96 | 1017.3 |
| 20260903111106 | 75 | 47 | 2.0 | 4.0 | 0.00 | 0.00 | 0.00 | 95 | 1017.1 |
| 20260903110604 | 75 | 47 | 2.0 | 5.0 | 0.00 | 0.00 | 0.00 | 95 | 1017.0 |
| 20260903105604 | 75 | 71 | 2.0 | 3.0 | 0.00 | 0.00 | 0.00 | 95 | 1016.8 |
| 20260903105106 | 75 | 71 | 2.0 | 3.0 | 0.00 | 0.00 | 0.00 | 95 | 1016.8 |
| 20260903104608 | 75 | 71 | 2.0 | 3.0 | 0.00 | 0.00 | 0.00 | 95 | 1016.8 |
| 20260903103605 | 75 | 141 | 2.0 | 3.0 | 0.00 | 0.00 | 0.00 | 95 | 1016.6 |
| 20260903103109 | 75 | 141 | 1.0 | 3.0 | 0.00 | 0.00 | 0.00 | 95 | 1016.6 |
| 20260903102602 | 75 | 141 | 0.0 | 3.0 | 0.00 | 0.00 | 0.00 | 95 | 1016.6 |
| 20260903102100 | 75 | 141 | 0.0 | 0.0 | 0.00 | 0.00 | 0.00 | 95 | 1016.6 |
| 20260903101554 | 75 | 141 | 0.0 | 3.0 | 0.00 | 0.00 | 0.00 | 95 | 1016.7 |
| 20260903101053 | 75 | 141 | 0.0 | 3.0 | 0.00 | 0.00 | 0.00 | 95 | 1016.7 |
| 20260903100550 | 75 | 141 | 1.0 | 3.0 | 0.00 | 0.00 | 0.00 | 95 | 1016.6 |
| 20260903100051 | 75 | 141 | 1.0 | 3.0 | 0.00 | 0.00 | 0.00 | 95 | 1016.6 |
| 20260903095550 | 74 | 141 | 1.0 | 3.0 | 0.00 | 0.00 | 0.00 | 95 | 1016.6 |
| 20260903094049 | 74 | 141 | 0.0 | 2.0 | 0.00 | 0.00 | 0.00 | 94 | 1016.4 |
| 20260903093037 | 74 | 141 | 0.0 | 0.0 | 0.00 | 0.00 | 0.00 | 94 | 1016.4 |
| 20260903092031 | 73 | 141 | 0.0 | 0.0 | 0.00 | 0.00 | 0.00 | 94 | 1016.4 |
| 20260903091532 | 73 | 141 | 0.0 | 0.0 | 0.00 | 0.00 | 0.00 | 94 | 1016.5 |
| 20260903091033 | 73 | 141 | 0.0 | 0.0 | 0.00 | 0.00 | 0.00 | 94 | 1016.4 |
| 20260903090030 | 74 | 141 | 0.0 | 0.0 | 0.00 | 0.00 | 0.00 | 93 | 1016.5 |
| 20260903084032 | 74 | 141 | 0.0 | 0.0 | 0.00 | 0.00 | 0.00 | 94 | 1016.4 |
| 20260903083531 | 74 | 141 | 0.0 | 0.0 | 0.00 | 0.00 | 0.00 | 93 | 1016.4 |
| 20260903083032 | 74 | 141 | 0.0 | 0.0 | 0.00 | 0.00 | 0.00 | 93 | 1016.4 |
| 20260903082529 | 74 | 141 | 0.0 | 0.0 | 0.00 | 0.00 | 0.00 | 94 | 1016.4 |
| 20260903082029 | 74 | 141 | 0.0 | 0.0 | 0.00 | 0.00 | 0.00 | 93 | 1016.4 |
| 20260903081524 | 74 | 141 | 0.0 | 0.0 | 0.00 | 0.00 | 0.00 | 93 | 1016.3 |
| 20260903080514 | 74 | 141 | 0.0 | 0.0 | 0.00 | 0.00 | 0.00 | 93 | 1016.2 |
| 20260903080014 | 74 | 141 | 0.0 | 0.0 | 0.00 | 0.00 | 0.00 | 93 | 1016.3 |
| 20260903075514 | 74 | 141 | 0.0 | 0.0 | 0.00 | 0.00 | 0.00 | 93 | 1016.3 |
| 20260903075015 | 74 | 141 | 0.0 | 0.0 | 0.00 | 0.00 | 0.00 | 93 | 1016.3 |
| 20260903074512 | 74 | 141 | 0.0 | 0.0 | 0.00 | 0.00 | 0.00 | 93 | 1016.3 |
| 20260903074013 | 74 | 141 | 0.0 | 0.0 | 0.00 | 0.00 | 0.00 | 93 | 1016.3 |
| 20260903073512 | 74 | 141 | 0.0 | 0.0 | 0.00 | 0.00 | 0.00 | 93 | 1016.2 |
| 20260903072508 | 75 | 141 | 0.0 | 0.0 | 0.00 | 0.00 | 0.00 | 92 | 1016.3 |
| 20260903072013 | 75 | 141 | 0.0 | 0.0 | 0.00 | 0.00 | 0.00 | 92 | 1016.5 |
| 20260903071511 | 75 | 141 | 0.0 | 0.0 | 0.00 | 0.00 | 0.00 | 92 | 1016.5 |
| 20260903071013 | 75 | 141 | 0.0 | 0.0 | 0.00 | 0.00 | 0.00 | 92 | 1016.5 |
| 20260903065511 | 75 | 141 | 0.0 | 0.0 | 0.00 | 0.00 | 0.00 | 92 | 1016.7 |
| 20260903065008 | 75 | 141 | 0.0 | 0.0 | 0.00 | 0.00 | 0.00 | 92 | 1016.7 |
| 20260903064505 | 75 | 141 | 0.0 | 0.0 | 0.00 | 0.00 | 0.00 | 91 | 1016.7 |
| 20260903064009 | 75 | 141 | 0.0 | 0.0 | 0.00 | 0.00 | 0.00 | 91 | 1016.7 |
| 20260903063507 | 76 | 141 | 0.0 | 0.0 | 0.00 | 0.00 | 0.00 | 91 | 1016.7 |
| 20260903063009 | 76 | 141 | 0.0 | 0.0 | 0.00 | 0.00 | 0.00 | 91 | 1016.8 |
| 20260903062510 | 76 | 141 | 0.0 | 0.0 | 0.00 | 0.00 | 0.00 | 91 | 1017.0 |
| 20260903062006 | 76 | 141 | 0.0 | 0.0 | 0.00 | 0.00 | 0.00 | 91 | 1017.0 |
| 20260903061506 | 76 | 141 | 0.0 | 0.0 | 0.00 | 0.00 | 0.00 | 91 | 1017.0 |
| 20260903060506 | 76 | 141 | 0.0 | 0.0 | 0.00 | 0.00 | 0.00 | 91 | 1017.1 |
| 20260903060005 | 76 | 141 | 0.0 | 0.0 | 0.00 | 0.00 | 0.00 | 90 | 1017.1 |
| 20260903055511 | 76 | 141 | 0.0 | 0.0 | 0.00 | 0.00 | 0.00 | 90 | 1017.1 |
| 20260903055009 | 76 | 141 | 0.0 | 0.0 | 0.00 | 0.00 | 0.00 | 90 | 1017.1 |
| 20260903054508 | 76 | 141 | 0.0 | 0.0 | 0.00 | 0.00 | 0.00 | 90 | 1017.2 |
| 20260903054006 | 76 | 141 | 0.0 | 0.0 | 0.00 | 0.00 | 0.00 | 90 | 1017.2 |
| 20260903053508 | 76 | 141 | 0.0 | 0.0 | 0.00 | 0.00 | 0.00 | 90 | 1017.2 |
| 20260903053005 | 76 | 141 | 0.0 | 0.0 | 0.00 | 0.00 | 0.00 | 90 | 1017.3 |
| 20260903052506 | 76 | 141 | 0.0 | 0.0 | 0.00 | 0.00 | 0.00 | 90 | 1017.3 |
| 20260903052006 | 76 | 141 | 0.0 | 0.0 | 0.00 | 0.00 | 0.00 | 89 | 1017.3 |
| 20260903051505 | 76 | 141 | 0.0 | 0.0 | 0.00 | 0.00 | 0.00 | 89 | 1017.4 |
| 20260903051006 | 77 | 141 | 0.0 | 0.0 | 0.00 | 0.00 | 0.00 | 89 | 1017.2 |
| 20260903050506 | 77 | 141 | 0.0 | 0.0 | 0.00 | 0.00 | 0.00 | 89 | 1017.3 |
| 20260903050007 | 77 | 141 | 0.0 | 0.0 | 0.00 | 0.00 | 0.00 | 88 | 1017.4 |
| 20260903045507 | 77 | 141 | 0.0 | 0.0 | 0.00 | 0.00 | 0.00 | 88 | 1017.4 |
| 20260903045005 | 77 | 141 | 0.0 | 0.0 | 0.00 | 0.00 | 0.00 | 88 | 1017.5 |
| 20260903044501 | 77 | 141 | 0.0 | 0.0 | 0.00 | 0.00 | 0.00 | 87 | 1017.4 |
| 20260903044007 | 77 | 141 | 0.0 | 0.0 | 0.00 | 0.00 | 0.00 | 87 | 1017.5 |
| 20260903043505 | 77 | 141 | 0.0 | 0.0 | 0.00 | 0.00 | 0.00 | 87 | 1017.5 |
| 20260903043001 | 77 | 141 | 0.0 | 0.0 | 0.00 | 0.00 | 0.00 | 87 | 1017.5 |
| 20260903042502 | 77 | 141 | 0.0 | 0.0 | 0.00 | 0.00 | 0.00 | 86 | 1017.5 |
| 20260903041959 | 77 | 141 | 0.0 | 0.0 | 0.00 | 0.00 | 0.00 | 86 | 1017.5 |
| 20260903041453 | 78 | 141 | 0.0 | 0.0 | 0.00 | 0.00 | 0.00 | 86 | 1017.5 |
| 20260903040952 | 78 | 141 | 0.0 | 0.0 | 0.00 | 0.00 | 0.00 | 85 | 1017.5 |
| 20260903040451 | 78 | 141 | 0.0 | 0.0 | 0.00 | 0.00 | 0.00 | 85 | 1017.6 |
| 20260903035947 | 78 | 141 | 0.0 | 0.0 | 0.00 | 0.00 | 0.00 | 85 | 1017.5 |
| 20260903035442 | 78 | 141 | 0.0 | 0.0 | 0.00 | 0.00 | 0.00 | 84 | 1017.5 |
| 20260903034938 | 78 | 141 | 0.0 | 0.0 | 0.00 | 0.00 | 0.00 | 84 | 1017.6 |
| 20260903034441 | 78 | 141 | 0.0 | 0.0 | 0.00 | 0.00 | 0.00 | 84 | 1017.7 |
| 20260903033938 | 79 | 141 | 0.0 | 0.0 | 0.00 | 0.00 | 0.00 | 83 | 1017.6 |
| 20260903032437 | 79 | 141 | 0.0 | 0.0 | 0.00 | 0.00 | 0.00 | 82 | 1017.6 |
| 20260903031937 | 79 | 141 | 0.0 | 0.0 | 0.00 | 0.00 | 0.00 | 82 | 1017.6 |
| 20260903030938 | 80 | 141 | 0.0 | 0.0 | 0.00 | 0.00 | 0.00 | 81 | 1017.7 |
| 20260903030438 | 80 | 141 | 0.0 | 0.0 | 0.00 | 0.00 | 0.00 | 80 | 1017.6 |
| 20260903025932 | 80 | 141 | 0.0 | 0.0 | 0.00 | 0.00 | 0.00 | 80 | 1017.5 |
| 20260903025433 | 80 | 141 | 0.0 | 0.0 | 0.00 | 0.00 | 0.00 | 80 | 1017.6 |
| 20260903024930 | 80 | 141 | 0.0 | 0.0 | 0.00 | 0.00 | 0.00 | 79 | 1017.6 |
| 20260903024435 | 80 | 141 | 0.0 | 0.0 | 0.00 | 0.00 | 0.00 | 79 | 1017.6 |
| 20260903023939 | 81 | 141 | 0.0 | 0.0 | 0.00 | 0.00 | 0.00 | 78 | 1017.7 |
| 20260903023433 | 81 | 141 | 0.0 | 0.0 | 0.00 | 0.00 | 0.00 | 78 | 1017.7 |
| 20260903022929 | 81 | 141 | 0.0 | 0.0 | 0.00 | 0.00 | 0.00 | 78 | 1017.7 |
| 20260903022431 | 81 | 141 | 0.0 | 0.0 | 0.00 | 0.00 | 0.00 | 77 | 1017.7 |
| 20260903021930 | 81 | 141 | 0.0 | 0.0 | 0.00 | 0.00 | 0.00 | 77 | 1017.7 |
| 20260903021429 | 81 | 141 | 0.0 | 0.0 | 0.00 | 0.00 | 0.00 | 76 | 1017.7 |
| 20260903020931 | 82 | 141 | 0.0 | 0.0 | 0.00 | 0.00 | 0.00 | 76 | 1017.8 |
| 20260903020427 | 82 | 141 | 0.0 | 0.0 | 0.00 | 0.00 | 0.00 | 76 | 1017.7 |
| 20260903015927 | 82 | 141 | 0.0 | 0.0 | 0.00 | 0.00 | 0.00 | 75 | 1017.7 |
| 20260903015428 | 82 | 141 | 0.0 | 0.0 | 0.00 | 0.00 | 0.00 | 75 | 1017.7 |
| 20260903013927 | 83 | 141 | 0.0 | 0.0 | 0.00 | 0.00 | 0.00 | 73 | 1017.5 |
| 20260903013427 | 83 | 141 | 0.0 | 0.0 | 0.00 | 0.00 | 0.00 | 73 | 1017.4 |
| 20260903012928 | 83 | 141 | 0.0 | 0.0 | 0.00 | 0.00 | 0.00 | 72 | 1017.4 |
| 20260903012421 | 83 | 141 | 0.0 | 2.0 | 0.00 | 0.00 | 0.00 | 72 | 1017.2 |
| 20260903011927 | 84 | 141 | 0.0 | 2.0 | 0.00 | 0.00 | 0.00 | 72 | 1017.2 |
| 20260903011419 | 84 | 141 | 0.0 | 2.0 | 0.00 | 0.00 | 0.00 | 71 | 1017.1 |
| 20260903010924 | 84 | 141 | 1.0 | 2.0 | 0.00 | 0.00 | 0.00 | 71 | 1017.0 |
| 20260903010424 | 84 | 141 | 1.0 | 2.0 | 0.00 | 0.00 | 0.00 | 71 | 1017.0 |
| 20260903005922 | 85 | 141 | 1.0 | 3.0 | 0.00 | 0.00 | 0.00 | 70 | 1017.0 |
| 20260903004922 | 85 | 135 | 0.0 | 2.0 | 0.00 | 0.00 | 0.00 | 71 | 1016.9 |
| 20260903004422 | 85 | 135 | 1.0 | 2.0 | 0.00 | 0.00 | 0.00 | 71 | 1016.9 |
| 20260903003922 | 85 | 135 | 1.0 | 2.0 | 0.00 | 0.00 | 0.00 | 70 | 1016.8 |
| 20260903003419 | 86 | 135 | 0.0 | 2.0 | 0.00 | 0.00 | 0.00 | 70 | 1016.9 |
| 20260903001911 | 86 | 135 | 1.0 | 3.0 | 0.00 | 0.00 | 0.00 | 69 | 1016.8 |
| 20260903000903 | 87 | 149 | 1.0 | 5.0 | 0.00 | 0.00 | 0.00 | 68 | 1016.7 |
| 20260903000402 | 87 | 149 | 1.0 | 5.0 | 0.00 | 0.00 | 0.00 | 67 | 1016.7 |
| 20260902235902 | 88 | 154 | 1.0 | 5.0 | 0.00 | 0.00 | 0.00 | 67 | 1016.7 |
| 20260902235403 | 88 | 154 | 2.0 | 5.0 | 0.00 | 0.00 | 0.00 | 66 | 1016.6 |
| 20260902234901 | 89 | 154 | 2.0 | 6.0 | 0.00 | 0.00 | 0.00 | 65 | 1016.6 |
| 20260902234401 | 89 | 91 | 1.0 | 6.0 | 0.00 | 0.00 | 0.00 | 64 | 1016.5 |
| 20260902233901 | 90 | 112 | 0.0 | 3.0 | 0.00 | 0.00 | 0.00 | 63 | 1016.5 |
| 20260902233400 | 90 | 112 | 0.0 | 4.0 | 0.00 | 0.00 | 0.00 | 62 | 1016.4 |
| 20260902232900 | 91 | 112 | 1.0 | 4.0 | 0.00 | 0.00 | 0.00 | 61 | 1016.4 |
| 20260902232359 | 91 | 89 | 1.0 | 4.0 | 0.00 | 0.00 | 0.00 | 59 | 1016.4 |
| 20260902231902 | 91 | 332 | 1.0 | 4.0 | 0.00 | 0.00 | 0.00 | 58 | 1016.3 |
| 20260902231401 | 92 | 89 | 2.0 | 3.0 | 0.00 | 0.00 | 0.00 | 57 | 1016.3 |
| 20260902230857 | 92 | 89 | 1.0 | 6.0 | 0.00 | 0.00 | 0.00 | 56 | 1016.2 |
| 20260902230351 | 92 | 89 | 1.0 | 6.0 | 0.00 | 0.00 | 0.00 | 55 | 1016.2 |
| 20260902225852 | 92 | 123 | 1.0 | 4.0 | 0.00 | 0.00 | 0.00 | 55 | 1016.2 |
| 20260902225348 | 93 | 123 | 2.0 | 5.0 | 0.00 | 0.00 | 0.00 | 54 | 1016.2 |
| 20260902224844 | 93 | 72 | 3.0 | 7.0 | 0.00 | 0.00 | 0.00 | 54 | 1016.2 |
| 20260902224343 | 93 | 72 | 2.0 | 7.0 | 0.00 | 0.00 | 0.00 | 53 | 1016.3 |
| 20260902223841 | 93 | 91 | 3.0 | 10.0 | 0.00 | 0.00 | 0.00 | 53 | 1016.2 |
| 20260902223340 | 93 | 99 | 4.0 | 11.0 | 0.00 | 0.00 | 0.00 | 54 | 1016.2 |
| 20260902222339 | 94 | 69 | 2.0 | 8.0 | 0.00 | 0.00 | 0.00 | 53 | 1016.3 |
| 20260902221843 | 94 | 102 | 3.0 | 9.0 | 0.00 | 0.00 | 0.00 | 53 | 1016.3 |
| 20260902221346 | 94 | 77 | 4.0 | 9.0 | 0.00 | 0.00 | 0.00 | 53 | 1016.3 |
| 20260902220335 | 94 | 70 | 5.0 | 11.0 | 0.00 | 0.00 | 0.00 | 55 | 1016.3 |
| 20260902215834 | 94 | 57 | 4.0 | 11.0 | 0.00 | 0.00 | 0.00 | 53 | 1016.3 |
| 20260902215342 | 94 | 77 | 3.0 | 11.0 | 0.00 | 0.00 | 0.00 | 53 | 1016.3 |
| 20260902214834 | 94 | 89 | 3.0 | 8.0 | 0.00 | 0.00 | 0.00 | 53 | 1016.3 |
| 20260902214341 | 94 | 75 | 4.0 | 9.0 | 0.00 | 0.00 | 0.00 | 53 | 1016.3 |
| 20260902213831 | 94 | 77 | 5.0 | 10.0 | 0.00 | 0.00 | 0.00 | 52 | 1016.2 |
| 20260902213327 | 94 | 74 | 5.0 | 10.0 | 0.00 | 0.00 | 0.00 | 54 | 1016.2 |
| 20260902212311 | 94 | 60 | 5.0 | 11.0 | 0.00 | 0.00 | 0.00 | 52 | 1016.4 |
| 20260902211310 | 93 | 56 | 3.0 | 8.0 | 0.00 | 0.00 | 0.00 | 55 | 1016.4 |
| 20260902210815 | 93 | 75 | 3.0 | 8.0 | 0.00 | 0.00 | 0.00 | 54 | 1016.5 |
| 20260902210313 | 94 | 67 | 3.0 | 8.0 | 0.00 | 0.00 | 0.00 | 53 | 1016.5 |
| 20260902205808 | 94 | 65 | 3.0 | 7.0 | 0.00 | 0.00 | 0.00 | 53 | 1016.4 |
| 20260902205301 | 93 | 66 | 5.0 | 10.0 | 0.00 | 0.00 | 0.00 | 54 | 1016.5 |
| 20260902204801 | 93 | 58 | 5.0 | 10.0 | 0.00 | 0.00 | 0.00 | 50 | 1016.5 |
| 20260902204301 | 94 | 73 | 3.0 | 10.0 | 0.00 | 0.00 | 0.00 | 51 | 1016.5 |
| 20260902203802 | 94 | 69 | 5.0 | 13.0 | 0.00 | 0.00 | 0.00 | 51 | 1016.5 |
| 20260902203303 | 94 | 64 | 6.0 | 13.0 | 0.00 | 0.00 | 0.00 | 52 | 1016.6 |
| 20260902202802 | 95 | 66 | 4.0 | 12.0 | 0.00 | 0.00 | 0.00 | 55 | 1016.6 |
| 20260902202306 | 94 | 54 | 5.0 | 12.0 | 0.00 | 0.00 | 0.00 | 52 | 1016.6 |
| 20260902201801 | 94 | 49 | 5.0 | 10.0 | 0.00 | 0.00 | 0.00 | 53 | 1016.7 |
| 20260902201301 | 94 | 79 | 5.0 | 10.0 | 0.00 | 0.00 | 0.00 | 51 | 1016.7 |
| 20260902200301 | 94 | 47 | 4.0 | 10.0 | 0.00 | 0.00 | 0.00 | 50 | 1016.9 |
| 20260902195801 | 94 | 73 | 5.0 | 10.0 | 0.00 | 0.00 | 0.00 | 53 | 1016.9 |
| 20260902194805 | 94 | 50 | 5.0 | 12.0 | 0.00 | 0.00 | 0.00 | 52 | 1017.0 |
| 20260902194305 | 94 | 60 | 3.0 | 11.0 | 0.00 | 0.00 | 0.00 | 54 | 1017.1 |
| 20260902193302 | 94 | 82 | 6.0 | 12.0 | 0.00 | 0.00 | 0.00 | 53 | 1017.2 |
| 20260902192801 | 94 | 67 | 5.0 | 13.0 | 0.00 | 0.00 | 0.00 | 53 | 1017.3 |
| 20260902192306 | 94 | 46 | 3.0 | 13.0 | 0.00 | 0.00 | 0.00 | 50 | 1017.2 |
| 20260902190801 | 94 | 25 | 6.0 | 12.0 | 0.00 | 0.00 | 0.00 | 52 | 1017.2 |
| 20260902190301 | 93 | 45 | 5.0 | 12.0 | 0.00 | 0.00 | 0.00 | 55 | 1017.4 |
| 20260902185301 | 93 | 87 | 6.0 | 12.0 | 0.00 | 0.00 | 0.00 | 56 | 1017.4 |
| 20260902184800 | 92 | 48 | 6.0 | 12.0 | 0.00 | 0.00 | 0.00 | 53 | 1017.4 |
| 20260902184258 | 92 | 52 | 6.0 | 11.0 | 0.00 | 0.00 | 0.00 | 54 | 1017.5 |
| 20260902183758 | 93 | 70 | 5.0 | 14.0 | 0.00 | 0.00 | 0.00 | 51 | 1017.5 |
| 20260902183257 | 93 | 65 | 4.0 | 14.0 | 0.00 | 0.00 | 0.00 | 51 | 1017.6 |
| 20260902181257 | 93 | 67 | 5.0 | 12.0 | 0.00 | 0.00 | 0.00 | 51 | 1017.7 |
| 20260902180802 | 92 | 50 | 4.0 | 12.0 | 0.00 | 0.00 | 0.00 | 52 | 1017.7 |
| 20260902180304 | 93 | 77 | 4.0 | 11.0 | 0.00 | 0.00 | 0.00 | 55 | 1017.8 |
| 20260902175258 | 92 | 72 | 4.0 | 9.0 | 0.00 | 0.00 | 0.00 | 54 | 1017.8 |
| 20260902174752 | 93 | 62 | 4.0 | 9.0 | 0.00 | 0.00 | 0.00 | 54 | 1017.9 |
| 20260902174251 | 93 | 18 | 3.0 | 9.0 | 0.00 | 0.00 | 0.00 | 53 | 1017.9 |
| 20260902173751 | 93 | 71 | 3.0 | 8.0 | 0.00 | 0.00 | 0.00 | 52 | 1018.0 |
| 20260902173249 | 92 | 17 | 3.0 | 8.0 | 0.00 | 0.00 | 0.00 | 55 | 1018.1 |
| 20260902172750 | 92 | 21 | 3.0 | 9.0 | 0.00 | 0.00 | 0.00 | 53 | 1018.2 |
| 20260902172251 | 91 | 12 | 3.0 | 9.0 | 0.00 | 0.00 | 0.00 | 56 | 1018.3 |
| 20260902171748 | 92 | 62 | 2.0 | 6.0 | 0.00 | 0.00 | 0.00 | 54 | 1018.3 |
| 20260902171246 | 92 | 57 | 2.0 | 7.0 | 0.00 | 0.00 | 0.00 | 56 | 1018.5 |
| 20260902170242 | 92 | 97 | 3.0 | 12.0 | 0.00 | 0.00 | 0.00 | 56 | 1018.7 |
| 20260902165743 | 91 | 83 | 3.0 | 7.0 | 0.00 | 0.00 | 0.00 | 58 | 1018.7 |
| 20260902165241 | 91 | 77 | 3.0 | 7.0 | 0.00 | 0.00 | 0.00 | 58 | 1018.8 |
| 20260902164744 | 91 | 107 | 3.0 | 9.0 | 0.00 | 0.00 | 0.00 | 59 | 1018.8 |